Middletown, PA

10:21 AM EDT on May 29, 2017 (GMT -0400)
Harrisburg International

Weather History for KMDT - November, 2013

Change the Weather History Date:

Monday, November 18, 2013

  Actual Average Record
Temperature  
Mean Temperature 55 °F 43 °F  
Max Temperature 63 °F 52 °F 76 °F (1928)
Min Temperature 47 °F 34 °F 16 °F (1959)
Degree Days  
Heating Degree Days 10 22  
Month to date heating degree days 337 335  
Since 1 July heating degree days 683 747  
Cooling Degree Days 0 0  
Month to date cooling degree days 0 0  
Year to date cooling degree days 1105 1002  
Growing Degree Days 5 (Base 50)    
Moisture  
Dew Point 35 °F    
Average Humidity 56    
Maximum Humidity 84    
Minimum Humidity 27    
Precipitation  
Precipitation 0.09 in 0.11 in 1.30 in (1892)
Month to date precipitation 0.85 1.83  
Year to date precipitation 37.32 36.11  
Snow  
Snow 0.00 in 0.00 in 0.50 in (2007)
Month to date snowfall T 0.1  
Since 1 July snowfall T 0.1  
Since 1 September snowfall T 0.1  
Snow Depth 0.00 in    
Sea Level Pressure  
Sea Level Pressure 29.74 in    
Wind  
Wind Speed 16 mph (West)    
Max Wind Speed 36 mph    
Max Gust Speed 48 mph    
Visibility 9 miles    
Events Rain    
T = Trace of Precipitation, MM = Missing Value Source: NWS Daily Summary

Daily Weather History Graph

Daily Weather History Graph

Search for Another Location

Airport or City:

Trip Planner

Search our weather history database for the weather conditions in past years. The results will help you decide how hot, cold, wet, or windy it might be!

Date:

Astronomy

Nov. 18, 2013 Rise Set
Actual Time 6:56 AM EST 4:47 PM EST
Civil Twilight 6:26 AM EST 5:17 PM EST
Nautical Twilight 5:53 AM EST 5:50 PM EST
Astronomical Twilight 5:21 AM EST 6:22 PM EST
Moon 5:48 PM EST (11/18) 7:43 AM EST (11/18)
Length of Visible Light 10h 50m
Length of Day
9h 51m
Full, 99% of the Moon is Illuminated
Nov 18
Full
Nov 25
Last Quarter
Dec 2
New
Dec 9
First Quarter
Dec 17
Full

Hourly Weather History & Observations

Time (EST) Temp. Dew Point Humidity Pressure Visibility Wind Dir Wind Speed Gust Speed Precip Events Conditions
12:56 AM 62.1 °F 55.9 °F 80% 29.64 in 10.0 mi South 13.8 mph 27.6 mph 0.02 in Rain Light Rain
1:48 AM 57.2 °F 53.6 °F 88% 29.70 in 1.8 mi West 28.8 mph 48.3 mph 0.03 in Rain Heavy Rain
1:54 AM 55.4 °F 51.8 °F 88% 29.69 in 2.5 mi West 25.3 mph 46.0 mph 0.06 in Rain Rain
1:55 AM 55.9 °F 51.1 °F 84% 29.70 in 2.5 mi West 23.0 mph 44.9 mph 0.06 in Rain Rain
1:57 AM 55.4 °F 50.0 °F 82% 29.69 in 3.0 mi West 24.2 mph 39.1 mph 0.00 in Rain Rain
2:56 AM 57.0 °F 45.0 °F 64% 29.66 in 10.0 mi SW 8.1 mph - 0.01 in   Overcast
3:56 AM 59.0 °F 39.9 °F 49% 29.68 in 10.0 mi WSW 12.7 mph 18.4 mph 0.00 in   Overcast
4:56 AM 59.0 °F 39.9 °F 49% 29.68 in 10.0 mi SW 9.2 mph 19.6 mph 0.00 in   Mostly Cloudy
5:56 AM 57.9 °F 37.0 °F 46% 29.69 in 10.0 mi West 13.8 mph 20.7 mph N/A   Partly Cloudy
6:56 AM 57.0 °F 36.0 °F 45% 29.70 in 10.0 mi West 6.9 mph 16.1 mph N/A   Partly Cloudy
7:56 AM 57.0 °F 34.0 °F 42% 29.73 in 10.0 mi West 11.5 mph 20.7 mph N/A   Partly Cloudy
8:56 AM 57.9 °F 35.1 °F 42% 29.73 in 10.0 mi West 15.0 mph 21.9 mph N/A   Clear
9:56 AM 59.0 °F 33.1 °F 38% 29.74 in 10.0 mi WNW 17.3 mph 26.5 mph N/A   Clear
10:56 AM 59.0 °F 30.9 °F 35% 29.75 in 10.0 mi West 20.7 mph 31.1 mph N/A   Clear
11:56 AM 60.1 °F 30.9 °F 33% 29.73 in 10.0 mi West 16.1 mph 29.9 mph N/A   Clear
12:56 PM 61.0 °F 30.9 °F 32% 29.70 in 10.0 mi WNW 15.0 mph 23.0 mph N/A   Partly Cloudy
1:56 PM 62.1 °F 28.9 °F 29% 29.70 in 10.0 mi West 20.7 mph 28.8 mph N/A   Partly Cloudy
2:56 PM 61.0 °F 28.9 °F 30% 29.70 in 10.0 mi West 10.4 mph - N/A   Partly Cloudy
3:56 PM 60.1 °F 27.0 °F 28% 29.71 in 10.0 mi West 16.1 mph 26.5 mph N/A   Partly Cloudy
4:56 PM 57.9 °F 26.1 °F 30% 29.74 in 10.0 mi West 17.3 mph 24.2 mph N/A   Partly Cloudy
5:56 PM 55.0 °F 28.0 °F 35% 29.78 in 10.0 mi WNW 11.5 mph - N/A   Partly Cloudy
6:56 PM 55.0 °F 26.1 °F 33% 29.80 in 10.0 mi West 20.7 mph 28.8 mph N/A   Partly Cloudy
7:56 PM 53.1 °F 28.0 °F 38% 29.83 in 10.0 mi WNW 11.5 mph - N/A   Mostly Cloudy
8:56 PM 52.0 °F 26.1 °F 37% 29.86 in 10.0 mi NW 18.4 mph 32.2 mph N/A   Mostly Cloudy
9:56 PM 48.9 °F 24.1 °F 38% 29.89 in 10.0 mi NW 20.7 mph 31.1 mph N/A   Partly Cloudy
10:56 PM 48.0 °F 24.1 °F 39% 29.91 in 10.0 mi NW 19.6 mph 24.2 mph N/A   Mostly Cloudy
11:56 PM 46.9 °F 23.0 °F 39% 29.93 in 10.0 mi NW 21.9 mph 35.7 mph N/A   Mostly Cloudy